Stündliche Wetter Bolshinka

Heute, 17 Januar, Sonntag

Zeit Temperatur Niederschläge Wind Luftdruck Luftfeuchtigkeit
00:00 -16°C° 0 mm 3 m/S 757 mmHg 92%
01:00 -16°C° 0 mm 3 m/S 757 mmHg 91%
02:00 -15°C° 0 mm 2 m/S 757 mmHg 91%
03:00 -15°C° 0 mm 2 m/S 757 mmHg 91%
04:00 -13°C° 0 mm 1 m/S 757 mmHg 92%
05:00 -14°C° 0 mm 1 m/S 756 mmHg 92%
06:00 -14°C° 0 mm 0 m/S 756 mmHg 93%
07:00 -14°C° 0 mm 0 m/S 756 mmHg 92%
08:00 -13°C° 0 mm 1 m/S 756 mmHg 92%
09:00 -13°C° 0 mm 1 m/S 756 mmHg 92%
10:00 -12°C° 0 mm 1 m/S 756 mmHg 90%
11:00 -13°C° 0 mm 2 m/S 756 mmHg 89%
12:00 -13°C° 0 mm 3 m/S 756 mmHg 88%
13:00 -13°C° 0 mm 3 m/S 755 mmHg 88%
14:00 -13°C° 0 mm 3 m/S 755 mmHg 88%
15:00 -10°C° 0 mm 2 m/S 755 mmHg 87%
16:00 -13°C° 0.1 mm 3 m/S 755 mmHg 88%
17:00 -14°C° 0.1 mm 4 m/S 755 mmHg 89%
18:00 -14°C° 0.1 mm 5 m/S 755 mmHg 91%
19:00 -14°C° 0.1 mm 5 m/S 755 mmHg 91%
20:00 -15°C° 0.1 mm 5 m/S 755 mmHg 92%
21:00 -15°C° 0.1 mm 5 m/S 755 mmHg 93%
22:00 -15°C° 0.2 mm 5 m/S 755 mmHg 93%
23:00 -15°C° 0.2 mm 5 m/S 755 mmHg 93%

Morgen, 18 Januar, Montag

Zeit Temperatur Niederschläge Wind Luftdruck Luftfeuchtigkeit
00:00 -15°C° 0.2 mm 5 m/S 754 mmHg 94%
01:00 -15°C° 0.5 mm 5 m/S 754 mmHg 94%
02:00 -15°C° 0.5 mm 5 m/S 754 mmHg 94%
03:00 -17°C° 0.5 mm 5 m/S 754 mmHg 94%
04:00 -17°C° 0.8 mm 5 m/S 754 mmHg 94%
05:00 -16°C° 0.8 mm 4 m/S 754 mmHg 94%
06:00 -16°C° 0.8 mm 4 m/S 754 mmHg 95%
07:00 -16°C° 0.7 mm 4 m/S 754 mmHg 95%
08:00 -15°C° 0.7 mm 3 m/S 755 mmHg 95%
09:00 -15°C° 0.7 mm 3 m/S 755 mmHg 95%
10:00 -14°C° 0.4 mm 3 m/S 755 mmHg 94%
11:00 -14°C° 0.4 mm 3 m/S 756 mmHg 94%
12:00 -14°C° 0.4 mm 3 m/S 756 mmHg 93%
13:00 -13°C° 0.1 mm 2 m/S 756 mmHg 93%
14:00 -13°C° 0.1 mm 2 m/S 756 mmHg 93%
15:00 -13°C° 0.1 mm 2 m/S 756 mmHg 93%
16:00 -14°C° 0 mm 2 m/S 756 mmHg 94%
17:00 -15°C° 0 mm 2 m/S 756 mmHg 95%
18:00 -14°C° 0 mm 1 m/S 757 mmHg 96%
19:00 -17°C° 0 mm 2 m/S 757 mmHg 96%
20:00 -17°C° 0 mm 2 m/S 757 mmHg 96%
21:00 -17°C° 0 mm 2 m/S 758 mmHg 96%
22:00 -18°C° 0 mm 2 m/S 758 mmHg 96%
23:00 -16°C° 0 mm 1 m/S 758 mmHg 96%

übermorgen, 19 Januar, Dienstag

Zeit Temperatur Niederschläge Wind Luftdruck Luftfeuchtigkeit
00:00 -16°C° 0 mm 1 m/S 758 mmHg 96%
01:00 -17°C° 0 mm 1 m/S 758 mmHg 95%
02:00 -17°C° 0 mm 1 m/S 758 mmHg 95%
03:00 -17°C° 0 mm 1 m/S 758 mmHg 95%
04:00 -17°C° 0 mm 1 m/S 758 mmHg 96%
05:00 -18°C° 0 mm 1 m/S 759 mmHg 97%
06:00 -18°C° 0 mm 1 m/S 759 mmHg 97%
07:00 -18°C° 0 mm 1 m/S 759 mmHg 97%
08:00 -18°C° 0 mm 1 m/S 759 mmHg 97%
09:00 -18°C° 0 mm 1 m/S 759 mmHg 97%
10:00 -17°C° 0 mm 1 m/S 759 mmHg 95%
11:00 -16°C° 0 mm 0 m/S 759 mmHg 93%
12:00 -14°C° 0 mm 0 m/S 759 mmHg 91%
13:00 -14°C° 0.1 mm 1 m/S 758 mmHg 91%
14:00 -13°C° 0.1 mm 1 m/S 758 mmHg 92%
15:00 -12°C° 0.1 mm 1 m/S 758 mmHg 92%
16:00 -13°C° 0.1 mm 1 m/S 758 mmHg 93%
17:00 -14°C° 0.1 mm 1 m/S 758 mmHg 94%
18:00 -17°C° 0.1 mm 2 m/S 758 mmHg 96%
19:00 -18°C° 0 mm 2 m/S 759 mmHg 96%
20:00 -20°C° 0 mm 2 m/S 759 mmHg 97%
21:00 -21°C° 0 mm 2 m/S 759 mmHg 98%
22:00 -21°C° 0 mm 2 m/S 760 mmHg 98%
23:00 -23°C° 0 mm 2 m/S 760 mmHg 98%

20 Januar, Mittwoch

Zeit Temperatur Niederschläge Wind Luftdruck Luftfeuchtigkeit
00:00 -23°C° 0 mm 2 m/S 760 mmHg 98%
01:00 -24°C° 0 mm 2 m/S 761 mmHg 98%
02:00 -24°C° 0 mm 2 m/S 761 mmHg 98%
03:00 -24°C° 0 mm 2 m/S 761 mmHg 98%
04:00 -23°C° 0 mm 2 m/S 761 mmHg 98%
05:00 -23°C° 0 mm 2 m/S 762 mmHg 98%
06:00 -23°C° 0 mm 2 m/S 762 mmHg 97%
07:00 -21°C° 0 mm 2 m/S 762 mmHg 97%
08:00 -21°C° 0 mm 2 m/S 763 mmHg 96%
09:00 -21°C° 0 mm 2 m/S 763 mmHg 95%
10:00 -22°C° 0 mm 3 m/S 763 mmHg 94%
11:00 -19°C° 0 mm 3 m/S 763 mmHg 93%
12:00 -18°C° 0 mm 3 m/S 763 mmHg 92%
13:00 -18°C° 0 mm 3 m/S 763 mmHg 92%
14:00 -18°C° 0 mm 3 m/S 763 mmHg 92%
15:00 -17°C° 0 mm 3 m/S 763 mmHg 92%
16:00 -19°C° 0 mm 3 m/S 764 mmHg 93%
17:00 -19°C° 0 mm 2 m/S 764 mmHg 94%
18:00 -20°C° 0 mm 2 m/S 765 mmHg 95%
19:00 -21°C° 0 mm 2 m/S 765 mmHg 96%
20:00 -21°C° 0 mm 2 m/S 765 mmHg 96%
21:00 -21°C° 0 mm 2 m/S 766 mmHg 96%
22:00 -21°C° 0 mm 2 m/S 766 mmHg 96%
23:00 -23°C° 0 mm 2 m/S 766 mmHg 97%

21 Januar, Donnerstag

Zeit Temperatur Niederschläge Wind Luftdruck Luftfeuchtigkeit
00:00 -23°C° 0 mm 2 m/S 766 mmHg 97%
01:00 -23°C° 0 mm 2 m/S 767 mmHg 97%
02:00 -23°C° 0 mm 2 m/S 767 mmHg 97%
03:00 -23°C° 0 mm 2 m/S 767 mmHg 97%
04:00 -20°C° 0 mm 1 m/S 767 mmHg 97%
05:00 -20°C° 0 mm 1 m/S 767 mmHg 97%
06:00 -20°C° 0 mm 1 m/S 767 mmHg 97%
07:00 -20°C° 0 mm 1 m/S 768 mmHg 96%
08:00 -19°C° 0 mm 1 m/S 768 mmHg 95%
09:00 -19°C° 0 mm 1 m/S 768 mmHg 93%
10:00 -17°C° 0 mm 1 m/S 768 mmHg 91%
11:00 -17°C° 0 mm 2 m/S 768 mmHg 89%
12:00 -16°C° 0 mm 2 m/S 768 mmHg 86%
13:00 -15°C° 0 mm 2 m/S 768 mmHg 88%
14:00 -14°C° 0 mm 2 m/S 767 mmHg 89%
15:00 -14°C° 0 mm 2 m/S 767 mmHg 90%
16:00 -16°C° 0 mm 3 m/S 767 mmHg 89%
17:00 -17°C° 0 mm 3 m/S 767 mmHg 89%
18:00 -18°C° 0 mm 3 m/S 767 mmHg 89%
19:00 -18°C° 0 mm 3 m/S 767 mmHg 90%
20:00 -18°C° 0 mm 3 m/S 766 mmHg 90%
21:00 -17°C° 0 mm 3 m/S 766 mmHg 91%
22:00 -15°C° 0 mm 3 m/S 766 mmHg 92%
23:00 -13°C° 0 mm 3 m/S 765 mmHg 94%

22 Januar, Freitag

Zeit Temperatur Niederschläge Wind Luftdruck Luftfeuchtigkeit
00:00 -10°C° 0 mm 3 m/S 765 mmHg 95%
01:00 -10°C° 0 mm 3 m/S 765 mmHg 95%
02:00 -9°C° 0 mm 3 m/S 764 mmHg 96%
03:00 -9°C° 0 mm 3 m/S 764 mmHg 96%
04:00 -7°C° 0 mm 3 m/S 764 mmHg 96%
05:00 -5°C° 0 mm 3 m/S 763 mmHg 96%
06:00 -4°C° 0 mm 3 m/S 763 mmHg 96%
07:00 -3°C° 0 mm 4 m/S 763 mmHg 96%
08:00 -2°C° 0 mm 4 m/S 763 mmHg 96%
09:00 0°C° 0 mm 4 m/S 763 mmHg 97%
10:00 0°C° 0 mm 4 m/S 763 mmHg 98%
11:00 0°C° 0 mm 5 m/S 763 mmHg 99%
12:00 0°C° 0 mm 5 m/S 763 mmHg 100%
13:00 0°C° 0 mm 5 m/S 763 mmHg 99%
14:00 0°C° 0 mm 5 m/S 763 mmHg 99%
15:00 0°C° 0 mm 5 m/S 762 mmHg 99%
16:00 0°C° 0 mm 5 m/S 762 mmHg 99%
17:00 0°C° 0 mm 5 m/S 762 mmHg 98%
18:00 0°C° 0 mm 4 m/S 762 mmHg 98%
19:00 0°C° 0 mm 4 m/S 762 mmHg 98%
20:00 0°C° 0 mm 4 m/S 762 mmHg 98%
21:00 0°C° 0 mm 4 m/S 762 mmHg 97%
22:00 0°C° 0 mm 4 m/S 762 mmHg 97%
23:00 0°C° 0 mm 5 m/S 762 mmHg 97%
Mehr zeigen

Wir brauchen deine Erlaubnis

Meteoprog und unser Service Anbieter werden persönliche Daten aufbewahren, so wie Cookies, Geräte Bezeichnung oder ähnliche Technologien von deinem Gerät und Prozess, so wie Persönliche Daten Inhalte und Werbungen, genauso wie social Media und den Verkehr zu analysieren.

  • Aufbewahrung und/oder Zugang zu deiner Geräte Informationen.

    Cookies, Geräte Bezeichnung oder andere Informationen, können aufbewahrt oder Zugang zu deinem Gerät erhalten, für den Grund, der oben angegeben wird.

  • Personalisierte Werbung und Inhalte, Messungen, Einblick in das Publikum und Produkt Entwicklung.

    Werbungen und Inhalte können personalisiert werden, basierend auf ein Profil. Mehr Daten können besser personalisierte Werbungen und Inhalte hinzufügen. Werbung und Inhalte können gezeigt und gemessen werden. Einblicke über das Publikum, welche die Werbung gesehen haben und den Inhalt, können abgeleitet werden. So wie Daten können genutzt werden, um es zu verbessern oder die Benutzer Erfahrung zu verbessern das System und die Software.

Wenn du “Ich stimme zu” klickst, erlaubst du uns, die Cookies zu benutzen die Geräte Bezeichnung, den Web oder ähnliche Technologien zu benutzen. Deine Settings, können in deinem Gerät bei deinem Browser geändert werden.

Für den bestimmten Zweck, berechtigten Interessen beruhen darauf, mehr als auf den Inhalt. Du kannst mehr darüber in unseren Privaten und Cookie Politik lesen.